Wind_Speed
13 11 10 9 9 10 10 11 12 12 12 11 12 13 14 15 15 16 17 17 18 19 19 21 21 21 19 17 16 16 15 12 6 8 12 18 20 23 22 20 24 28 32
16 14 12 11 10 11 11 12 11 11 10 11 12 14 15 16 19 17 17 18 19 20 21 22 24 23 23 21 18 18 17 16 9 10 13 15 17 20 18 20 22 25 27
18 16 14 11 10 11 12 12 11 11 12 12 15 18 19 19 19 20 20 18 18 22 19 22 23 24 25 24 22 19 17 16 15 11 13 14 12 22 18 15 20 19 23
18 15 15 13 10 10 11 11 11 10 11 12 14 15 17 19 19 18 19 18 17 20 20 22 23 25 26 23 23 23 20 17 17 16 14 17 15 20 19 18 15 21 21
17 14 13 13 10 9 8 9 8 8 9 11 13 15 14 15 13 13 15 17 16 16 19 19 21 21 22 24 25 24 22 20 19 18 17 17 20 20 21 20 16 7 15
17 15 15 14 12 11 10 10 10 10 10 10 11 11 13 13 13 12 12 15 17 18 19 18 18 19 18 20 21 24 25 22 21 20 19 19 21 19 18 16 18 13 5
19 17 17 15 13 12 11 11 11 10 10 11 11 11 11 11 11 12 12 13 16 17 18 18 18 19 17 16 17 17 21 23 20 18 18 20 20 21 16 15 13 14 12
21 20 18 16 14 14 13 12 11 10 10 10 10 10 10 10 10 10 12 13 14 15 18 18 18 19 20 16 17 18 19 20 21 19 18 16 19 20 15 12 9 5 8
22 21 20 17 16 15 14 13 11 11 10 10 9 10 10 10 9 9 9 10 12 13 15 17 17 18 19 18 17 18 18 18 16 18 18 18 19 24 24 15 19 14 6
23 22 20 18 17 16 15 14 12 10 10 9 9 9 10 9 9 9 8 8 10 10 11 12 16 16 17 18 17 16 17 17 16 17 18 19 20 21 26 23 19 17 13
21 21 20 18 17 17 16 14 12 11 11 10 10 9 9 9 7 7 8 8 8 8 8 9 10 12 14 15 14 14 12 13 14 14 15 17 19 20 19 19 19 17 15
21 21 20 19 17 18 17 15 12 13 12 10 8 6 6 6 6 6 5 7 8 8 7 6 8 10 11 12 12 11 9 9 10 12 13 16 16 17 17 14 15 14 13
21 20 19 18 17 18 18 16 13 11 9 8 7 6 6 5 5 6 6 6 7 8 6 5 6 8 9 9 11 12 12 11 10 11 11 12 12 12 12 12 12 9 10
21 19 19 18 18 17 16 15 13 12 10 8 8 8 8 7 6 6 6 5 4 5 4 5 6 8 9 9 10 11 11 11 10 10 10 10 10 11 12 13 12 14 10
19 19 18 17 18 17 15 14 13 11 12 11 9 10 11 10 7 5 5 3 3 3 3 4 5 7 8 8 9 10 10 10 10 10 11 11 11 11 11 11 11 12 11
19 18 18 18 17 16 14 11 13 11 11 11 8 10 12 10 9 5 6 3 2 1 2 3 4 6 7 8 9 9 9 10 10 10 10 11 12 12 12 11 11 11 11
18 18 18 18 17 16 14 13 12 10 10 9 10 12 11 10 9 3 10 8 3 1 2 2 3 4 6 7 8 8 8 9 9 9 10 10 11 11 12 11 11 11 11
18 21 20 18 17 16 15 14 12 14 13 11 11 12 11 11 9 5 14 9 2 1 0 1 2 4 5 6 6 6 7 8 8 9 9 9 11 11 11 11 11 12 12
20 19 21 20 20 18 17 15 14 12 11 10 11 14 13 13 11 8 17 7 5 3 2 1 2 3 4 5 4 4 5 6 7 7 8 9 10 11 10 10 11 11 11
18 18 20 20 19 18 16 14 13 12 11 11 10 11 11 13 12 13 15 10 5 4 2 1 2 3 4 4 4 5 6 6 7 6 7 9 10 10 10 10 10 11 10
19 18 18 18 17 17 15 14 13 12 12 11 11 11 12 12 13 12 10 8 6 4 3 1 2 3 4 3 4 5 6 6 5 6 7 8 9 10 10 9 10 10 10
19 17 17 16 15 15 14 12 11 10 10 9 8 10 11 11 9 9 9 9 6 5 4 4 3 3 3 4 5 6 6 5 5 6 7 8 9 10 9 9 9 10 10
16 15 13 11 11 12 12 10 9 8 8 8 8 8 8 8 9 9 10 8 6 5 5 5 5 5 6 8 8 6 5 5 6 6 6 8 9 10 9 9 10 9 10
15 14 13 14 14 12 10 9 8 9 7 7 7 7 8 9 9 9 8 7 6 6 6 6 7 7 8 7 6 6 5 7 6 6 10 9 11 11 9 9 8 8 10
13 14 14 14 13 10 10 8 7 7 6 7 7 8 9 10 9 8 8 7 6 6 6 7 7 7 7 8 8 8 9 8 11 12 12 12 12 10 8 8 8 9 10
13 14 13 12 11 10 9 8 7 7 7 7 8 8 8 8 8 8 7 7 6 6 6 7 7 7 7 7 9 9 10 11 13 14 14 10 8 7 7 7 8 8 10
Wind_Direction
152 137 126 115 106 101 95 90 82 74 65 62 60 59 57 54 54 54 52 50 48 42 38 33 31 27 27 23 24 24 23 22 24 26 17 26 33 35 39 49 50 46 41
161 152 141 125 107 99 97 92 90 86 77 72 72 68 64 60 59 57 53 50 48 43 41 37 35 31 34 29 27 28 28 29 28 25 12 8 22 19 29 38 45 51 48
165 160 149 137 116 101 102 99 95 96 88 85 79 75 69 63 62 58 57 54 49 51 42 38 35 34 34 31 32 32 30 32 33 35 30 22 15 14 16 31 37 38 40
164 161 159 150 134 114 110 108 104 100 95 86 81 79 72 65 61 58 59 56 50 50 45 42 40 37 35 31 31 31 30 33 32 37 30 23 20 16 19 14 14 33 33
162 161 164 161 153 133 122 122 120 112 99 87 87 83 71 62 53 54 50 50 49 46 44 44 41 42 41 40 38 30 30 33 31 33 30 23 18 10 12 8 7 345 34
165 162 159 158 151 143 132 128 123 111 104 96 87 78 74 65 57 55 59 52 50 48 45 43 41 38 38 41 45 45 41 37 34 31 29 23 13 7 4 10 16 18 4
168 164 160 158 153 147 143 138 126 117 107 97 89 84 78 70 64 59 65 62 56 52 49 46 43 37 37 39 39 42 43 42 41 35 33 25 13 4 359 5 14 34 32
166 167 165 163 155 153 150 143 132 123 111 100 92 86 82 70 66 67 65 64 62 57 50 48 48 44 39 42 44 45 43 39 37 38 38 31 25 15 12 4 354 357 27
167 169 170 165 158 157 153 145 138 127 115 106 98 90 86 76 70 74 70 69 67 63 59 51 50 46 39 43 46 46 44 41 37 44 44 40 36 32 33 33 26 23 20
171 171 171 167 165 162 160 152 144 132 125 122 110 101 101 89 71 69 76 74 72 68 61 56 49 46 39 36 40 39 41 33 33 36 36 35 33 34 38 39 32 31 18
172 170 170 170 168 167 160 156 152 143 135 128 124 121 114 105 91 74 65 72 69 68 63 52 42 38 34 32 35 34 37 30 29 33 32 32 31 31 32 35 39 41 35
169 170 171 172 170 170 166 161 158 151 139 132 131 129 136 127 109 78 77 80 72 70 66 54 39 34 37 33 33 28 21 22 22 24 27 26 26 25 25 28 37 43 44
167 170 173 173 175 173 169 168 166 165 159 152 148 146 145 131 115 111 112 93 71 69 71 66 30 20 22 32 27 21 22 22 17 17 15 12 10 8 10 16 20 19 25
168 170 172 175 177 176 176 179 177 179 182 179 175 169 166 159 144 128 132 116 82 68 60 37 28 22 21 21 22 21 23 21 19 11 3 358 358 359 1 3 1 4 360
171 172 176 181 178 178 184 187 192 199 197 194 196 184 176 176 173 157 152 140 124 71 46 33 22 17 14 14 13 14 15 16 15 8 3 359 358 356 354 354 353 352 352
172 177 180 180 184 186 185 187 204 212 210 210 217 201 183 174 164 173 198 192 183 30 24 32 18 12 6 1 359 1 6 10 6 3 360 358 354 350 346 344 346 345 341
179 180 181 183 184 183 183 183 176 184 196 207 198 188 191 188 182 186 185 179 199 319 46 36 15 4 354 350 350 353 356 356 357 357 357 353 351 346 346 344 344 342 339
184 187 184 187 188 189 192 191 184 178 178 184 197 197 201 199 199 215 184 190 188 280 90 357 353 349 346 344 345 347 347 349 353 354 352 354 353 349 345 345 343 340 335
191 193 198 199 201 203 201 201 199 195 192 188 194 205 212 213 218 219 192 211 215 213 213 256 328 334 334 335 337 341 343 342 344 350 350 353 350 348 342 340 336 333 329
194 199 199 201 204 206 206 204 203 204 204 204 205 213 206 204 196 206 212 222 200 196 202 228 294 312 318 324 327 334 335 335 337 342 343 344 343 344 337 335 335 333 332
195 200 205 206 208 210 209 209 209 207 209 211 217 220 218 213 221 214 209 205 190 196 212 229 291 304 309 310 317 321 324 323 326 330 333 336 338 339 335 332 330 330 327
198 202 206 212 215 213 213 211 206 203 205 207 203 216 225 218 206 195 196 197 208 224 251 281 297 299 294 299 307 310 312 310 315 318 322 328 333 334 331 332 332 331 330
198 200 201 199 196 187 180 183 187 191 192 196 205 211 203 191 189 187 194 203 218 245 271 292 299 296 299 304 306 303 297 302 308 306 314 320 325 327 324 325 326 327 329
186 188 184 178 176 175 174 177 182 192 201 200 191 186 185 188 186 192 202 215 237 257 276 290 295 294 297 301 308 309 292 296 299 301 311 311 314 315 310 314 313 316 322
181 180 179 176 174 173 177 177 177 178 182 188 187 186 186 188 194 204 216 230 243 258 279 291 297 299 299 302 302 300 289 279 284 297 304 304 303 301 297 303 303 308 317
175 175 174 173 174 176 171 169 175 181 181 181 181 183 189 197 208 219 227 232 242 261 279 290 293 294 297 304 304 296 292 291 294 296 299 301 297 290 293 297 309 310 313
Height
831 833 837 839 839 839 838 838 838 838 839 840 839 837 835 833 831 829 827 825 823 821 819 816 812 808 803 798 794 790 787 782 779 778 776 772 768 765 760 756 753 749 746
829 834 837 839 839 839 839 839 840 841 842 842 842 840 837 836 833 831 830 828 826 824 821 819 815 811 806 802 798 795 792 788 785 783 781 777 775 770 768 763 759 754 750
830 832 835 838 840 839 840 841 842 844 844 844 843 841 839 838 836 834 832 831 830 827 825 822 819 815 810 808 804 800 797 794 791 788 785 782 780 776 772 768 764 761 758
828 832 834 838 840 841 842 843 845 846 846 846 844 843 841 840 839 837 836 834 833 831 828 826 823 819 816 813 809 805 802 799 796 792 790 787 783 780 777 773 769 766 763
826 831 835 838 840 842 843 844 847 848 847 846 845 844 844 844 843 841 840 838 836 834 831 829 827 825 821 818 814 811 807 804 801 797 794 792 789 785 782 779 774 771 769
825 830 834 837 840 842 844 846 847 847 847 848 847 847 847 847 846 844 843 842 840 837 835 834 832 828 826 823 820 818 815 810 807 803 801 797 796 792 788 784 780 775 773
824 829 833 836 839 841 844 846 847 848 848 848 848 849 849 848 848 846 845 844 843 841 839 838 836 833 830 828 825 822 820 816 813 811 807 805 801 797 792 787 785 783 783
821 826 831 835 837 841 844 845 847 847 848 848 849 850 850 850 849 848 847 846 845 845 844 842 840 838 835 832 829 826 823 820 817 814 812 810 807 801 796 792 788 786 785
818 824 829 832 836 840 843 844 846 846 847 849 850 850 851 851 850 849 849 849 848 847 847 846 844 842 839 836 833 830 827 825 822 818 815 812 808 804 798 795 790 787 785
815 821 826 830 834 837 841 842 844 846 847 849 849 850 851 852 852 851 851 850 850 849 849 848 847 845 842 839 836 834 831 829 825 822 818 814 811 807 803 800 799 795 793
813 818 823 827 831 835 838 840 843 844 845 847 849 851 852 852 853 853 852 851 851 850 850 850 849 847 845 842 839 837 834 832 829 826 823 820 816 812 809 807 804 803 801
811 816 821 825 829 832 835 838 841 843 844 846 848 850 852 853 853 853 852 852 852 851 851 851 850 848 846 844 841 839 836 834 832 829 826 824 821 818 815 813 810 808 806
809 814 819 824 828 830 833 836 839 842 844 846 847 849 851 852 852 853 853 853 852 852 852 851 850 848 846 844 842 839 837 835 834 831 829 827 825 823 820 817 814 811 809
808 813 818 822 826 829 832 835 837 839 842 843 845 847 849 851 852 852 853 853 852 852 851 851 850 848 846 845 843 841 839 837 836 834 832 829 827 825 822 820 817 814 811
806 811 816 820 824 827 830 832 834 835 838 840 842 843 846 848 849 850 851 852 852 852 851 851 850 849 848 846 844 842 841 839 837 835 833 830 828 826 824 821 819 816 813
804 809 813 818 821 824 827 829 831 833 835 837 839 840 843 845 847 849 849 850 850 850 850 850 850 849 848 847 845 844 842 840 838 836 834 832 829 827 824 822 819 817 814
801 806 810 815 818 820 823 826 828 831 834 836 837 839 841 844 845 847 848 849 849 849 850 849 849 849 848 847 845 844 843 841 839 837 835 833 830 828 825 822 820 818 815
799 802 806 810 814 817 820 822 825 828 830 833 836 838 840 842 843 845 846 846 848 847 848 848 848 848 847 846 845 844 842 841 839 837 835 833 830 828 825 823 820 818 815
796 800 803 807 810 813 816 819 822 825 828 830 833 835 837 839 841 842 843 844 845 846 846 846 846 846 845 845 843 842 841 840 838 836 834 832 830 828 826 823 821 818 815
794 797 800 804 807 810 813 816 819 822 824 827 829 831 833 836 837 838 840 841 842 843 844 844 844 844 843 843 842 840 840 839 837 836 834 832 830 827 825 823 820 818 815
791 794 798 801 804 807 809 812 815 817 820 823 825 827 829 831 833 834 836 837 839 840 841 842 842 841 841 840 840 839 838 837 836 834 833 831 829 826 824 822 819 817 814
788 792 795 798 800 803 806 809 811 814 817 820 822 824 826 827 829 830 833 835 836 837 838 838 839 839 838 838 837 836 836 834 833 832 831 829 827 825 823 820 818 816 813
786 790 793 795 798 801 803 806 809 812 815 817 819 821 822 824 826 828 830 832 834 835 835 836 836 835 834 833 833 833 833 832 831 829 828 826 825 823 821 819 817 815 812
785 788 791 794 797 800 802 805 808 810 813 815 816 818 820 822 824 826 828 830 831 832 832 833 832 832 831 830 830 829 829 828 827 826 824 823 822 820 818 817 815 813 811
785 788 791 793 796 799 801 804 806 809 810 812 814 816 818 820 823 825 826 828 829 829 830 829 829 828 828 827 827 826 825 824 823 822 821 819 818 816 815 814 813 811 809
784 787 790 793 795 797 800 802 804 807 809 811 813 815 817 819 821 822 824 825 826 827 827 826 826 826 825 825 823 822 821 820 819 818 816 815 814 813 813 812 810 809 807